DELTA 1 DEB, 10829

Orbit data source: Space-Track

DELTA 1 DEB, 10829 is space debris in SSO originally from a launch on Thu, 29 Jul 1976 UTC launched from the Air Force Western Test Range (AFWTR). Debris objects in space refer to the collection of defunct objects orbiting the Earth. Examples of debris include non-operational satellites, rocket bodies, and fragments generated from explosions, collisions, or faulty payload assembly.

Loading next visibility...
Identifier
10829, 1976-077BZ
Orbit
SSO
Country
Flag of USUS
Related business
Manufacturer
Unknown
Mission
Spacecraft
Bus & Motor
Unknown
Mass
Unknown
Launch date (UTC)
1976-07-29 (50 years ago)
Launch vehicle
Unknown
Launch site
Air Force Western Test Range (AFWTR)
Object type
Payload
Rocket body
Debris
Shape & HBR
Unknown shape, 0.1 m
Radar Cross Section
Medium (>0.1 m² and <1 m²)

Expand to show TLE details & history
Last TLE update: 1 day ago

TLE from 1 day ago
0 DELTA 1 DEB
1 10829U 76077BZ  26255.36739692  .00000048  00000-0  70719-3 0  9991
2 10829 101.7855 209.7001 0041330 308.8365 204.0447 12.36771256259919
Epoch: 2026-09-12T08:49Z
TLE epoch observation values (Epoch: 2026-09-12T08:49:03.093Z)
Latitude
26.72444°
Longitude
-87.93956°
Altitude
1,553.104 km
Speed
7.079 km/s
True Right ascension
02h 22m 48s
True Declination
26° 36' 01"
Sunlit
Object was in partial shadow at epoch
Visualization orbit readout
Latitude
Unknown
Longitude
Unknown
Altitude
Unknown
Speed
Unknown
Apparent Right ascension
Unknown
Apparent Declination
Unknown
Sunlit
N/A
Visualization observer readout
Local Sidereal Time
02:30:00
Azimuth
Unknown
Elevation
Unknown
Doppler factor
Unknown
Orbital elements
Apogee altitude
1,550.52 km
Perigee altitude
1,485.252 km
Semi-major axis
7,896.023 km
Eccentricity
0.00413
Inclination
101.7855°
RAAN
209.7001°
Arg. of periapsis
308.8365°
True anomaly
203.85264°
Mean anomaly
204.0447°
Eccentric anomaly
203.94858°
Mean motion
3.09336 °/min
Orbital period
116.38 mins
BSTAR
0.00070719
Loading maneuver chart data...
Computing Atmospheric mass density...
Loading historical data...
Loading historical data...
Loading historical data...
Loading historical data...
Loading historical data...
Loading historical data...
Loading historical data...

Documentation

Showing up to 5 results
|